Weather History for YCIN - September, 2012

Change the Weather History Date:

Friday, September 28, 2012

  Actual Average Record
Temperature  
Mean Temperature 85 °F -  
Max Temperature 101 °F - - ()
Min Temperature 69 °F - - ()
Cooling Degree Days 20    
Growing Degree Days 35 (Base 50)    
Moisture  
Dew Point 59 °F    
Average Humidity 47    
Maximum Humidity 74    
Minimum Humidity 13    
Precipitation  
Precipitation 0.00 in - - ()
Sea Level Pressure  
Sea Level Pressure 29.86 in    
Wind  
Wind Speed 4 mph ()    
Max Wind Speed 10 mph    
Max Gust Speed -    
T = Trace of Precipitation, MM = Missing Value Source: Averaged Metar Reports

Daily Weather History Graph

Daily Weather History Graph

Search for Another Location

Airport or City:

Trip Planner

Search our weather history database for the weather conditions in past years. The results will help you decide how hot, cold, wet, or windy it might be!

Date:

Astronomy

Sep. 28, 2012 Rise Set
Actual Time 5:29 AM AWST 5:41 PM AWST
Civil Twilight 5:07 AM AWST 6:03 PM AWST
Nautical Twilight 4:42 AM AWST 6:28 PM AWST
Astronomical Twilight 4:17 AM AWST 6:54 PM AWST
Moon 4:08 PM AWST (9/28) 3:51 AM AWST (9/28)
Length of Visible Light 12h 55m
Length of Day
12h 12m
Waxing Gibbous, 96% of the Moon is Illuminated
Sep 28
Waxing Gibbous
Sep 30
Full
Oct 8
Last Quarter
Oct 15
New
Oct 22
First Quarter

Hourly Weather History & Observations

Time (AWST) Temp. Heat Index Dew Point Humidity Pressure Visibility Wind Dir Wind Speed Gust Speed Precip Events Conditions
12:00 AM 71 °F - 54 °F 45% 29.88 in - North 3.5 mph - -  
12:00 AM 69.8 °F - 53.6 °F 56% 29.89 in - North 3.5 mph - N/A   Unknown
1:00 AM 69.8 °F - 57.2 °F 64% 29.86 in - WNW 4.6 mph - N/A   Unknown
2:00 AM 71.6 °F - 57.2 °F 60% 29.86 in - Calm Calm - N/A   Unknown
3:00 AM 72 °F - 59 °F 55% 29.85 in - WNW 3.5 mph - -  
3:00 AM 71.6 °F - 59.0 °F 64% 29.86 in - WNW 3.5 mph - N/A   Unknown
4:00 AM 71.6 °F - 59.0 °F 64% 29.86 in - NW 3.5 mph - N/A   Unknown
5:00 AM 69.8 °F - 60.8 °F 73% 29.86 in - Calm Calm - N/A   Unknown
6:00 AM 71 °F - 62 °F 67% 29.89 in - North 3.5 mph - -  
6:00 AM 71.6 °F - 62.6 °F 73% 29.89 in - North 3.5 mph - N/A   Unknown
7:00 AM 75.2 °F - 64.4 °F 69% 29.92 in - Calm Calm - N/A   Unknown
8:00 AM 80.6 °F 83.9 °F 69.8 °F 70% 29.92 in - West 4.6 mph - N/A   Unknown
9:00 AM 86 °F - 59 °F 30% 29.92 in - SW 5.8 mph - -  
9:00 AM 86.0 °F 85.4 °F 59.0 °F 40% 29.92 in - SW 5.8 mph - N/A   Unknown
10:00 AM 91.4 °F 89.1 °F 53.6 °F 28% 29.92 in - WSW 5.8 mph - N/A   Unknown
11:00 AM 95.0 °F 92.7 °F 53.6 °F 25% 29.89 in - West 6.9 mph - N/A   Unknown
12:00 PM 97 °F - 53 °F 14% 29.85 in - West 6.9 mph - -  
12:00 PM 96.8 °F 94.4 °F 53.6 °F 23% 29.86 in - WSW 6.9 mph - N/A   Unknown
1:00 PM 98.6 °F 96.4 °F 53.6 °F 22% 29.83 in - NW 8.1 mph - N/A   Unknown
2:00 PM 100.4 °F 98.4 °F 53.6 °F 21% 29.80 in - NW 10.4 mph - N/A   Unknown
3:00 PM 99 °F - 53 °F 13% 29.78 in - NW 9.2 mph - -  
3:00 PM 98.6 °F 96.4 °F 53.6 °F 22% 29.77 in - NW 9.2 mph - N/A   Unknown
4:00 PM 98.6 °F 96.4 °F 53.6 °F 22% 29.80 in - North 10.4 mph - N/A   Unknown
5:00 PM 91.4 °F 89.4 °F 55.4 °F 29% 29.80 in - NW 8.1 mph - N/A   Unknown
6:00 PM 86 °F - 58 °F 28% 29.83 in - NNW 5.8 mph - -  
6:00 PM 86.0 °F 84.9 °F 57.2 °F 37% 29.83 in - NNW 5.8 mph - N/A   Unknown
7:00 PM 80.6 °F 81.8 °F 62.6 °F 54% 29.86 in - North 5.8 mph - N/A   Unknown
8:00 PM 75.2 °F - 60.8 °F 61% 29.89 in - West 3.5 mph - N/A   Unknown
9:00 PM 78 °F - 65 °F 56% 29.90 in - NNW 4.6 mph - -  
9:00 PM 77.0 °F - 66.2 °F 69% 29.89 in - NNW 4.6 mph - N/A   Unknown
10:00 PM 77.0 °F - 68.0 °F 74% 29.89 in - WNW 4.6 mph - N/A   Unknown
11:00 PM 75.2 °F - 66.2 °F 73% 29.89 in - WNW 3.5 mph - N/A   Unknown